Location: Carnoy
(49.9849°N, 2.7558°E)
Time: 21:46:50
(UTC+00:00)

SL-8 R/B - Pass Details

Date: 24 January 2020
Orbit: 656 x 667 km, 48.4° (Epoch: 25 February)

Event Time Altitude Azimuth Distance (km) Brightness Sun altitude
Rises 17:50:16 0° 230° (SW) 2,992 8.3 -12.9°
Reaches altitude 10° 17:52:43 10° 224° (SW) 2,080 7.2 -13.3°
Maximum altitude 17:57:13 41° 154° (SSE) 965 4.4 -14.0°
Enters shadow 17:59:55 21° 97° (E) 1,472 4.9 -14.4°
